Weather Roundup
Issued by NWS Chicago, IL

Home | Current Version | Previous Version | Graphics & Text | Print | Product List | Glossary On
Versions: 1 2 3 4 5 6 7 8 9 10 11 12 13 14 15 16 17 18 19 20 21 22 23 24 25 26 27 28 29 30 31 32 33 34 35 36 37 38 39 40 41 42 43 44 45 46 47 48 49 50
550
NZUS59 KLOT 242303
HRRLOT

CHICAGO AREA WEATHER ROUNDUP
NATIONAL WEATHER SERVICE CHICAGO/ROMEOVILLE IL
600 PM CDT FRI MAR 24 2017

NOTE: "FAIR" INDICATES FEW OR NO CLOUDS BELOW 12,000 FEET WITH NO
SIGNIFICANT WEATHER AND/OR OBSTRUCTIONS TO VISIBILITY.

* THESE STATIONS ARE NOT UNDER NWS QUALITY CONTROL. THEY ALSO MAY NOT
  REPORT WEATHER SUCH AS PRECIPITATION OR FOG.

ILZ005-006-012>014-019>023-250000-
NORTHEAST ILLINOIS

CITY           SKY/WX    TMP DP  RH WIND       PRES   REMARKS
OHARE          CLOUDY    51  40  65 NE21G26   29.95R
MIDWAY         CLOUDY    76  45  33 W14G24    29.92R
AURORA         CLOUDY    73  44  35 W9        29.93R
LANSING*       MOSUNNY   73  56  55 SW17G28   29.93S
JOLIET*        CLOUDY    76  54  47 SW9G17    29.92S
WAUKEGAN       PTSUNNY   41  36  82 N18G25    29.98R HAZE
DUPAGE AIRPORT CLOUDY    73  45  36 W8        29.92R
WHEELING       CLOUDY    47  39  74 N15G23    29.99R
MORRIS*        CLOUDY    74  54  50 S13G18    29.91S
NORTHERLY ISL    N/A     46  39  76 N25         N/A
$$

WIZ051-052-058>065-066-070>072-250000-
SOUTHEAST WISCONSIN

CITY           SKY/WX    TMP DP  RH WIND       PRES   REMARKS
MILWAUKEE      CLOUDY    39  35  86 N22G31    30.02R FOG
KENOSHA*       CLOUDY    41  35  79 NE17      30.02R HAZE
RACINE*        CLOUDY    39  35  86 N18G26    30.03R FOG
WAUKESHA       CLOUDY    43  36  75 NE14      30.02R
WEST BEND      CLOUDY    37  36  93 NE14G21   30.03R
$$

INZ001>003-010>013-019-020-250000-
NORTHWEST INDIANA

CITY           SKY/WX    TMP DP  RH WIND       PRES   REMARKS
GARY*          PTSUNNY   77  48  36 SW26      29.92S
MICHIGAN CITY* NOT AVBL
RENSSELAER*    NOT AVBL
VALPARAISO     PTSUNNY   74  55  51 SW22G30   29.95S
$$

LMZ740>746-250000-
SOUTHERN LAKE MICHIGAN

STATION/POSITION TIME  SKY/WX   TEMP WIND        PRES    VSBY
                                AIR  DIR/SP/G
                 (UTC)          (F)  (DEG/KT/KT) (MB)    (MI)
HARRISON CRIB    2240                340/ 27/ 30   N/A
BURNHAM HARBOR   2300                360/ 22/ 24   N/A
CALUMET HARBOR   2230            76  220/ 11/ 22 1012.3R
BURNS HARBOR     2240            73  230/ 22/ 30 1013.5R
MICHIGAN CITY    2240            74  190/ 18/ 26   N/A
$$

ABBREVIATIONS USED IN REMARKS
   TC - TEMPERATURE IN CELSIUS
  WCI - WIND CHILL INDEX
   HX - HEAT INDEX
  VSB - VISIBILITY
$$




USA.gov is the U.S. government's official web portal to all federal, state and local government web resources and services.